Location: Unspecified
(41.5516°N, 88.1098°W)
Time: 19:34:11
(UTC-05:00)

Resurs 1-4 Rocket - Visible Passes

Search period start: 30 July 2016 00:00
Search period end: 09 August 2016 00:00
Orbit: 800 x 814 km, 98.4° (Epoch: 30 July)

Date Brightness Start Highest point End Pass type
(mag) Time Alt. Az. Time Alt. Az. Time Alt. Az.
30 Jul 3.9 02:42:11 10° NE 02:46:19 23° E 02:48:52 17° SE visible
30 Jul 2.6 04:21:22 10° N 04:26:21 44° WNW 04:29:56 18° SW visible
31 Jul 4.5 02:18:57 10° ENE 02:21:31 14° E 02:23:57 10° ESE visible
31 Jul 2.1 03:56:38 10° N 04:01:54 73° WNW 04:05:02 25° SSW visible
01 Aug 2.3 03:32:07 10° NNE 03:37:22 68° ESE 03:40:07 28° S visible
01 Aug 3.8 05:13:25 10° NNW 05:16:38 17° WNW 05:19:50 10° W visible
02 Aug 3.1 03:07:48 10° NNE 03:12:44 40° E 03:15:12 25° SSE visible
02 Aug 3.3 04:48:04 10° N 04:52:22 26° WNW 04:56:18 12° WSW visible
03 Aug 3.9 02:43:48 10° NE 02:48:02 24° E 02:50:18 18° SE visible
03 Aug 2.6 04:23:05 10° N 04:28:02 42° WNW 04:31:23 19° SW visible
04 Aug 4.4 02:20:28 10° ENE 02:23:14 14° E 02:25:24 11° ESE visible
04 Aug 2.1 03:58:21 10° N 04:03:35 70° WNW 04:06:28 27° SSW visible
05 Aug 2.2 03:33:48 10° NNE 03:39:04 71° ESE 03:41:34 32° S visible
05 Aug 3.9 05:15:13 10° NNW 05:18:18 16° WNW 05:21:22 10° W visible
06 Aug 3.0 03:09:28 10° NNE 03:14:27 42° E 03:16:39 28° SSE visible
06 Aug 3.3 04:49:49 10° NNW 04:54:03 25° WNW 04:57:43 12° WSW visible
07 Aug 3.8 02:45:27 10° NE 02:49:45 25° E 02:51:44 20° SE visible
07 Aug 2.7 04:24:49 10° N 04:29:42 40° WNW 04:32:48 20° SW visible
08 Aug 4.3 02:22:01 10° NE 02:24:58 15° E 02:26:49 13° ESE visible
08 Aug 2.1 04:00:03 10° N 04:05:17 67° WNW 04:07:54 30° SSW visible
